Time,TemperatureF,DewpointF,PressureIn,WindDirection,WindDirectionDegrees,WindSpeedMPH,WindSpeedGustMPH,Humidity,HourlyPrecipIn,Conditions,Clouds,dailyrainin,SoftwareType,DateUTC
2013-02-22 00:03:00,39.7,28.1,30.08,WSW,244,4.0,4.0,63,0.00,CLR,,0.00,WeatherDisplay:10.37,2013-02-22 08:03:00,
2013-02-22 00:08:00,39.9,28.3,30.08,WSW,244,4.6,4.6,63,0.00,CLR,,0.00,WeatherDisplay:10.37,2013-02-22 08:08:00,
2013-02-22 00:14:00,40.1,28.1,30.08,SW,218,6.0,6.0,62,0.00,CLR,,0.00,WeatherDisplay:10.37,2013-02-22 08:14:00,
2013-02-22 00:19:00,39.9,27.5,30.08,SW,217,4.0,4.0,61,0.00,CLR,,0.00,WeatherDisplay:10.37,2013-02-22 08:19:00,
2013-02-22 00:24:00,39.5,27.5,30.08,SW,217,4.0,4.0,62,0.00,CLR,,0.00,WeatherDisplay:10.37,2013-02-22 08:24:00,
2013-02-22 00:29:00,39.4,27.5,30.08,SW,218,5.0,5.0,62,0.00,CLR,,0.00,WeatherDisplay:10.37,2013-02-22 08:29:00,
2013-02-22 00:34:00,39.4,27.5,30.08,SW,217,4.0,4.0,62,0.00,CLR,,0.00,WeatherDisplay:10.37,2013-02-22 08:34:00,
2013-02-22 00:39:00,39.2,27.3,30.08,SW,217,5.0,5.0,62,0.00,CLR,,0.00,WeatherDisplay:10.37,2013-02-22 08:39:00,
2013-02-22 00:44:00,38.8,27.3,30.08,South,180,5.8,5.8,63,0.00,CLR,,0.00,WeatherDisplay:10.37,2013-02-22 08:44:00,
2013-02-22 00:49:00,38.4,27.3,30.08,SSE,157,4.0,4.0,64,0.00,CLR,,0.00,WeatherDisplay:10.37,2013-02-22 08:49:00,
2013-02-22 00:54:00,38.4,28.0,30.09,South,176,9.2,9.2,66,0.00,CLR,,0.00,WeatherDisplay:10.37,2013-02-22 08:54:00,
2013-02-22 00:59:00,38.3,27.9,30.08,South,176,6.9,6.9,66,0.00,CLR,,0.00,WeatherDisplay:10.37,2013-02-22 08:59:00,
2013-02-22 01:05:00,37.6,27.3,30.09,SSE,162,3.5,3.5,66,0.00,OVC,,0.00,WeatherDisplay:10.37,2013-02-22 09:05:00,
2013-02-22 01:10:00,37.3,27.7,30.08,SSE,162,7.0,7.0,68,0.00,OVC,,0.00,WeatherDisplay:10.37,2013-02-22 09:10:00,
2013-02-22 01:15:00,34.9,25.0,30.08,WSW,254,4.6,4.6,67,0.00,OVC,,0.00,WeatherDisplay:10.37,2013-02-22 09:15:00,
2013-02-22 01:20:00,32.9,24.2,30.08,WSW,254,5.0,5.0,70,0.00,OVC,,0.00,WeatherDisplay:10.37,2013-02-22 09:20:00,
2013-02-22 01:25:00,32.5,24.1,30.09,SW,225,6.0,6.0,71,0.00,OVC,,0.00,WeatherDisplay:10.37,2013-02-22 09:25:00,
2013-02-22 01:30:00,31.2,22.5,30.08,SSW,201,7.0,7.0,70,0.00,OVC,,0.00,WeatherDisplay:10.37,2013-02-22 09:30:00,
2013-02-22 01:36:00,30.2,20.9,30.08,WSW,254,6.0,6.0,68,0.00,OVC,,0.00,WeatherDisplay:10.37,2013-02-22 09:36:00,
2013-02-22 01:41:00,30.1,22.5,30.08,WSW,254,3.5,3.5,73,0.00,OVC,,0.00,WeatherDisplay:10.37,2013-02-22 09:41:00,
2013-02-22 01:46:00,31.0,23.7,30.08,WSW,254,3.5,3.5,74,0.00,OVC,,0.00,WeatherDisplay:10.37,2013-02-22 09:46:00,
2013-02-22 01:51:00,31.6,23.9,30.08,WSW,254,3.5,3.5,73,0.00,OVC,,0.00,WeatherDisplay:10.37,2013-02-22 09:51:00,
2013-02-22 01:57:00,31.4,23.7,30.08,WSW,254,3.5,3.5,73,0.00,OVC,,0.00,WeatherDisplay:10.37,2013-02-22 09:57:00,
2013-02-22 02:02:00,30.5,22.9,30.08,WSW,254,3.5,3.5,73,0.00,OVC,,0.00,WeatherDisplay:10.37,2013-02-22 10:02:00,
2013-02-22 02:07:00,29.8,22.8,30.08,WSW,254,3.5,3.5,75,0.00,OVC,,0.00,WeatherDisplay:10.37,2013-02-22 10:07:00,
2013-02-22 02:12:00,29.8,23.2,30.08,WSW,254,1.1,0.0,76,0.00,OVC,,0.00,WeatherDisplay:10.37,2013-02-22 10:12:00,
2013-02-22 02:17:00,28.3,20.5,30.09,WSW,254,2.0,3.0,72,0.00,CLR,,0.00,WeatherDisplay:10.37,2013-02-22 10:17:00,
2013-02-22 02:22:00,27.7,21.4,30.09,WSW,254,0.0,2.0,77,0.00,CLR,,0.00,WeatherDisplay:10.37,2013-02-22 10:22:00,
2013-02-22 02:27:00,26.7,20.8,30.08,SSW,202,3.5,3.5,78,0.00,OVC,,0.00,WeatherDisplay:10.37,2013-02-22 10:27:00,
2013-02-22 02:32:00,25.1,18.9,30.09,SSW,200,4.6,4.6,77,0.00,OVC,,0.00,WeatherDisplay:10.37,2013-02-22 10:32:00,
2013-02-22 02:38:00,24.3,18.1,30.09,SSW,200,4.0,4.0,77,0.00,OVC,,0.00,WeatherDisplay:10.37,2013-02-22 10:38:00,
2013-02-22 02:43:00,23.3,17.2,30.09,SSW,200,5.0,5.0,77,0.00,OVC,,0.00,WeatherDisplay:10.37,2013-02-22 10:43:00,
2013-02-22 02:48:00,22.7,17.7,30.09,SSE,148,4.6,4.6,81,0.00,OVC,,0.00,WeatherDisplay:10.37,2013-02-22 10:48:00,
2013-02-22 02:53:00,24.4,20.8,30.09,SSE,150,6.0,6.0,86,0.00,OVC,,0.00,WeatherDisplay:10.37,2013-02-22 10:53:00,
2013-02-22 02:58:00,25.5,21.9,30.09,SSE,150,4.6,4.6,86,0.00,OVC,,0.00,WeatherDisplay:10.37,2013-02-22 10:58:00,
2013-02-22 03:03:00,25.8,22.2,30.08,SSE,163,6.0,6.0,86,0.00,OVC,,0.00,WeatherDisplay:10.37,2013-02-22 11:03:00,
2013-02-22 03:08:00,26.8,23.2,30.09,SSE,165,5.0,5.0,86,0.00,OVC,,0.00,WeatherDisplay:10.37,2013-02-22 11:08:00,
2013-02-22 03:14:00,27.4,23.5,30.09,SSE,165,3.5,3.5,85,0.00,OVC,,0.00,WeatherDisplay:10.37,2013-02-22 11:14:00,
2013-02-22 03:19:00,27.9,23.7,30.09,SSE,165,2.3,2.3,84,0.00,OVC,,0.00,WeatherDisplay:10.37,2013-02-22 11:19:00,
2013-02-22 03:24:00,26.9,21.6,30.09,SSE,165,3.5,3.5,80,0.00,OVC,,0.00,WeatherDisplay:10.37,2013-02-22 11:24:00,
2013-02-22 03:29:00,26.8,22.0,30.09,SSE,165,0.0,0.0,82,0.00,OVC,,0.00,WeatherDisplay:10.37,2013-02-22 11:29:00,
2013-02-22 03:34:00,27.6,22.8,30.09,SSE,165,0.0,0.0,82,0.00,OVC,,0.00,WeatherDisplay:10.37,2013-02-22 11:34:00,
2013-02-22 03:39:00,28.4,23.6,30.09,SSE,165,0.0,0.0,82,0.00,OVC,,0.00,WeatherDisplay:10.37,2013-02-22 11:39:00,
2013-02-22 03:44:00,26.7,20.5,30.09,SSE,165,2.3,2.3,77,0.00,OVC,,0.00,WeatherDisplay:10.37,2013-02-22 11:44:00,
2013-02-22 03:49:00,26.3,21.0,30.09,SSE,165,0.0,0.0,80,0.00,OVC,,0.00,WeatherDisplay:10.37,2013-02-22 11:49:00,
2013-02-22 03:55:00,26.0,20.7,30.09,SSE,165,0.0,0.0,80,0.00,OVC,,0.00,WeatherDisplay:10.37,2013-02-22 11:55:00,
2013-02-22 04:00:00,26.0,21.0,30.09,SSE,165,2.3,2.3,81,0.00,OVC,,0.00,WeatherDisplay:10.37,2013-02-22 12:00:00,
2013-02-22 04:05:00,26.0,21.3,30.09,SSE,165,2.3,2.3,82,0.00,OVC,,0.00,WeatherDisplay:10.37,2013-02-22 12:05:00,
2013-02-22 04:10:00,25.4,19.8,30.09,SSE,165,1.1,1.1,79,0.00,OVC,,0.00,WeatherDisplay:10.37,2013-02-22 12:10:00,
2013-02-22 04:15:00,25.1,19.8,30.09,SSE,165,2.3,2.3,80,0.00,OVC,,0.00,WeatherDisplay:10.37,2013-02-22 12:15:00,
2013-02-22 04:21:00,25.3,20.3,30.10,SSE,165,2.0,2.0,81,0.00,OVC,,0.00,WeatherDisplay:10.37,2013-02-22 12:21:00,
2013-02-22 04:26:00,26.2,21.7,30.10,SSE,165,4.0,4.0,83,0.00,OVC,,0.00,WeatherDisplay:10.37,2013-02-22 12:26:00,
2013-02-22 04:31:00,27.0,22.5,30.10,SSE,165,4.0,4.0,83,0.00,OVC,,0.00,WeatherDisplay:10.37,2013-02-22 12:31:00,
2013-02-22 04:36:00,28.1,23.6,30.10,SSE,165,1.1,0.0,83,0.00,OVC,,0.00,WeatherDisplay:10.37,2013-02-22 12:36:00,
2013-02-22 04:41:00,25.4,18.3,30.10,SSW,210,4.6,4.6,74,0.00,OVC,,0.00,WeatherDisplay:10.37,2013-02-22 12:41:00,
2013-02-22 04:46:00,23.1,17.3,30.11,SSW,210,5.0,5.0,78,0.00,OVC,,0.00,WeatherDisplay:10.37,2013-02-22 12:46:00,
2013-02-22 04:51:00,25.0,20.8,30.11,SSW,210,5.0,5.0,84,0.00,OVC,,0.00,WeatherDisplay:10.37,2013-02-22 12:51:00,
2013-02-22 04:56:00,25.0,20.0,30.11,WSW,252,5.0,5.0,81,0.00,OVC,,0.00,WeatherDisplay:10.37,2013-02-22 12:56:00,
2013-02-22 05:02:00,26.4,22.5,30.11,WSW,252,3.5,3.5,85,0.00,OVC,,0.00,WeatherDisplay:10.37,2013-02-22 13:02:00,
2013-02-22 05:07:00,27.0,22.5,30.11,SW,223,5.8,5.8,83,0.00,OVC,,0.00,WeatherDisplay:10.37,2013-02-22 13:07:00,
2013-02-22 05:12:00,24.5,18.6,30.11,SW,229,5.0,6.0,78,0.00,CLR,,0.00,WeatherDisplay:10.37,2013-02-22 13:12:00,
2013-02-22 05:17:00,23.8,18.6,30.11,SW,230,3.0,6.0,80,0.00,CLR,,0.00,WeatherDisplay:10.37,2013-02-22 13:17:00,
2013-02-22 05:22:00,24.4,20.3,30.11,WSW,237,6.0,7.0,84,0.00,CLR,,0.00,WeatherDisplay:10.37,2013-02-22 13:22:00,
2013-02-22 05:27:00,23.3,18.9,30.11,SW,228,3.0,6.0,83,0.00,CLR,,0.00,WeatherDisplay:10.37,2013-02-22 13:27:00,
2013-02-22 05:32:00,22.3,17.7,30.12,SW,224,5.0,5.0,82,0.00,CLR,,0.00,WeatherDisplay:10.37,2013-02-22 13:32:00,
2013-02-22 05:37:00,22.1,17.7,30.12,SW,228,2.0,5.0,83,0.00,CLR,,0.00,WeatherDisplay:10.37,2013-02-22 13:37:00,
2013-02-22 05:42:00,22.0,17.9,30.12,SW,230,2.0,4.0,84,0.00,CLR,,0.00,WeatherDisplay:10.37,2013-02-22 13:42:00,
2013-02-22 05:47:00,22.4,18.3,30.12,SW,230,5.0,5.0,84,0.00,CLR,,0.00,WeatherDisplay:10.37,2013-02-22 13:47:00,
2013-02-22 05:52:00,22.0,17.9,30.12,SW,230,2.0,4.0,84,0.00,CLR,,0.00,WeatherDisplay:10.37,2013-02-22 13:52:00,
2013-02-22 05:57:00,21.9,18.1,30.12,SW,230,5.0,5.0,85,0.00,CLR,,0.00,WeatherDisplay:10.37,2013-02-22 13:57:00,
2013-02-22 06:02:00,22.2,18.4,30.12,SW,230,3.0,4.0,85,0.00,CLR,,0.00,WeatherDisplay:10.37,2013-02-22 14:02:00,
2013-02-22 06:07:00,22.4,18.6,30.12,SW,230,2.0,4.0,85,0.00,CLR,,0.00,WeatherDisplay:10.37,2013-02-22 14:07:00,
2013-02-22 06:12:00,23.0,19.4,30.13,SW,230,3.0,4.0,86,0.00,CLR,,0.00,WeatherDisplay:10.37,2013-02-22 14:12:00,
2013-02-22 06:17:00,23.1,19.3,30.13,SW,230,2.0,4.0,85,0.00,CLR,,0.00,WeatherDisplay:10.37,2013-02-22 14:17:00,
2013-02-22 06:22:00,22.7,18.8,30.14,SW,230,2.0,4.0,85,0.00,CLR,,0.00,WeatherDisplay:10.37,2013-02-22 14:22:00,
2013-02-22 06:27:00,22.2,18.1,30.14,SW,230,3.0,5.0,84,0.00,CLR,,0.00,WeatherDisplay:10.37,2013-02-22 14:27:00,
2013-02-22 06:32:00,23.4,20.3,30.14,SW,230,1.0,4.0,88,0.00,CLR,,0.00,WeatherDisplay:10.37,2013-02-22 14:32:00,
2013-02-22 06:37:00,23.5,19.7,30.15,SW,230,1.0,3.0,85,0.00,CLR,,0.00,WeatherDisplay:10.37,2013-02-22 14:37:00,
2013-02-22 06:42:00,23.0,18.9,30.15,SW,230,3.0,4.0,84,0.00,CLR,,0.00,WeatherDisplay:10.37,2013-02-22 14:42:00,
2013-02-22 06:47:00,23.8,20.3,30.15,SW,230,3.0,4.0,86,0.00,CLR,,0.00,WeatherDisplay:10.37,2013-02-22 14:47:00,
2013-02-22 06:52:00,25.9,22.8,30.15,SW,230,2.0,3.0,88,0.00,CLR,,0.00,WeatherDisplay:10.37,2013-02-22 14:52:00,
2013-02-22 06:57:00,27.2,23.6,30.16,SW,231,2.0,3.0,86,0.00,CLR,,0.00,WeatherDisplay:10.37,2013-02-22 14:57:00,
2013-02-22 07:02:00,28.8,24.8,30.16,WSW,248,1.0,2.0,85,0.00,CLR,,0.00,WeatherDisplay:10.37,2013-02-22 15:02:00,
2013-02-22 07:07:00,29.6,25.4,30.16,WNW,302,2.0,3.0,84,0.00,CLR,,0.00,WeatherDisplay:10.37,2013-02-22 15:07:00,
2013-02-22 07:12:00,30.3,25.5,30.16,NNW,337,2.0,2.0,82,0.00,CLR,,0.00,WeatherDisplay:10.37,2013-02-22 15:12:00,
2013-02-22 07:17:00,29.6,23.6,30.16,NE,34,2.0,4.0,78,0.00,CLR,,0.00,WeatherDisplay:10.37,2013-02-22 15:17:00,
2013-02-22 07:22:00,28.8,23.4,30.17,SE,136,1.0,3.0,80,0.00,CLR,,0.00,WeatherDisplay:10.37,2013-02-22 15:22:00,
2013-02-22 07:27:00,28.8,23.7,30.17,SE,138,0.0,2.0,81,0.00,CLR,,0.00,WeatherDisplay:10.37,2013-02-22 15:27:00,
2013-02-22 07:32:00,29.2,24.1,30.17,SE,138,0.0,0.0,81,0.00,CLR,,0.00,WeatherDisplay:10.37,2013-02-22 15:32:00,
2013-02-22 07:37:00,30.1,25.0,30.17,SE,138,0.0,1.0,81,0.00,CLR,,0.00,WeatherDisplay:10.37,2013-02-22 15:37:00,
2013-02-22 07:42:00,31.1,25.7,30.18,SE,138,0.0,0.0,80,0.00,CLR,,0.00,WeatherDisplay:10.37,2013-02-22 15:42:00,
2013-02-22 07:47:00,32.2,26.4,30.18,SE,138,0.0,0.0,79,0.00,CLR,,0.00,WeatherDisplay:10.37,2013-02-22 15:47:00,
2013-02-22 07:52:00,33.6,27.2,30.18,ESE,109,1.0,2.0,77,0.00,CLR,,0.00,WeatherDisplay:10.37,2013-02-22 15:52:00,
2013-02-22 07:57:00,34.7,27.6,30.19,NE,45,1.0,3.0,75,0.00,CLR,,0.00,WeatherDisplay:10.37,2013-02-22 15:57:00,
2013-02-22 08:02:00,35.6,28.1,30.19,NNE,33,2.3,2.3,74,0.00,CLR,,0.00,WeatherDisplay:10.37,2013-02-22 16:02:00,
2013-02-22 08:07:00,36.4,28.6,30.19,NNE,33,3.5,3.5,73,0.00,CLR,,0.00,WeatherDisplay:10.37,2013-02-22 16:07:00,
2013-02-22 08:12:00,36.8,28.3,30.19,NNE,33,2.3,2.3,71,0.00,CLR,,0.00,WeatherDisplay:10.37,2013-02-22 16:12:00,
2013-02-22 08:17:00,37.7,28.8,30.19,NNE,33,3.0,3.0,70,0.00,CLR,,0.00,WeatherDisplay:10.37,2013-02-22 16:17:00,
2013-02-22 08:22:00,38.7,29.0,30.19,NNE,33,4.0,4.0,68,0.00,CLR,,0.00,WeatherDisplay:10.37,2013-02-22 16:22:00,
2013-02-22 08:27:00,39.5,29.1,30.19,NNE,33,2.3,2.3,66,0.00,CLR,,0.00,WeatherDisplay:10.37,2013-02-22 16:27:00,
2013-02-22 08:32:00,39.7,28.9,30.19,NE,38,3.5,3.5,65,0.00,CLR,,0.00,WeatherDisplay:10.37,2013-02-22 16:32:00,
2013-02-22 08:37:00,39.7,28.9,30.19,NE,46,4.6,4.6,65,0.00,CLR,,0.00,WeatherDisplay:10.37,2013-02-22 16:37:00,
2013-02-22 08:42:00,40.1,28.9,30.19,ENE,66,4.6,4.6,64,0.00,CLR,,0.00,WeatherDisplay:10.37,2013-02-22 16:42:00,
2013-02-22 08:47:00,40.0,28.4,30.19,ENE,67,4.6,4.6,63,0.00,CLR,,0.00,WeatherDisplay:10.37,2013-02-22 16:47:00,
2013-02-22 08:52:00,39.9,28.7,30.19,ENE,65,5.0,5.0,64,0.00,CLR,,0.00,WeatherDisplay:10.37,2013-02-22 16:52:00,
2013-02-22 08:57:00,40.5,28.9,30.19,ENE,61,4.6,4.6,63,0.00,CLR,,0.00,WeatherDisplay:10.37,2013-02-22 16:57:00,
2013-02-22 09:02:00,40.6,28.6,30.20,ENE,72,6.9,6.9,62,0.00,CLR,,0.00,WeatherDisplay:10.37,2013-02-22 17:02:00,
2013-02-22 09:07:00,40.6,28.6,30.19,ENE,59,6.9,6.9,62,0.00,CLR,,0.00,WeatherDisplay:10.37,2013-02-22 17:07:00,
2013-02-22 09:12:00,41.3,28.9,30.19,ENE,59,5.8,5.8,61,0.00,CLR,,0.00,WeatherDisplay:10.37,2013-02-22 17:12:00,
2013-02-22 09:17:00,42.0,28.7,30.19,NE,51,3.5,3.5,59,0.00,CLR,,0.00,WeatherDisplay:10.37,2013-02-22 17:17:00,
2013-02-22 09:22:00,42.6,28.8,30.19,NE,38,3.5,3.5,58,0.00,CLR,,0.00,WeatherDisplay:10.37,2013-02-22 17:22:00,
2013-02-22 09:27:00,43.2,29.0,30.19,NE,40,3.5,3.5,57,0.00,CLR,,0.00,WeatherDisplay:10.37,2013-02-22 17:27:00,
2013-02-22 09:32:00,43.6,28.5,30.19,East,89,3.5,3.5,55,0.00,CLR,,0.00,WeatherDisplay:10.37,2013-02-22 17:32:00,
2013-02-22 09:37:00,44.3,28.7,30.19,East,89,3.5,3.5,54,0.00,CLR,,0.00,WeatherDisplay:10.37,2013-02-22 17:37:00,
2013-02-22 09:42:00,44.9,28.8,30.19,East,89,2.3,2.3,53,0.00,CLR,,0.00,WeatherDisplay:10.37,2013-02-22 17:42:00,
2013-02-22 09:47:00,46.0,29.3,30.19,East,89,0.0,0.0,52,0.00,CLR,,0.00,WeatherDisplay:10.37,2013-02-22 17:47:00,
2013-02-22 09:52:00,47.0,28.8,30.19,NE,55,3.5,3.5,49,0.00,CLR,,0.00,WeatherDisplay:10.37,2013-02-22 17:52:00,
2013-02-22 09:58:00,48.1,29.3,30.19,NNE,13,3.5,3.5,48,0.00,CLR,,0.00,WeatherDisplay:10.37,2013-02-22 17:58:00,
2013-02-22 10:03:00,48.9,28.5,30.19,NNW,334,5.0,5.0,45,0.00,OVC,,0.00,WeatherDisplay:10.37,2013-02-22 18:03:00,
2013-02-22 10:08:00,49.2,28.7,30.19,NNE,13,3.5,3.5,45,0.00,OVC,,0.00,WeatherDisplay:10.37,2013-02-22 18:08:00,
2013-02-22 10:13:00,49.5,27.9,30.19,NNE,27,4.6,4.6,43,0.00,OVC,,0.00,WeatherDisplay:10.37,2013-02-22 18:13:00,
2013-02-22 10:18:00,49.7,28.1,30.19,NNW,348,4.0,4.0,43,0.00,OVC,,0.00,WeatherDisplay:10.37,2013-02-22 18:18:00,
2013-02-22 10:23:00,50.4,28.1,30.19,NE,46,4.0,4.0,42,0.00,OVC,,0.00,WeatherDisplay:10.37,2013-02-22 18:23:00,
2013-02-22 10:28:00,50.3,26.9,30.19,ENE,68,3.5,3.5,40,0.00,OVC,,0.00,WeatherDisplay:10.37,2013-02-22 18:28:00,
2013-02-22 10:33:00,51.2,28.3,30.19,NNE,25,3.5,3.5,41,0.00,OVC,,0.00,WeatherDisplay:10.37,2013-02-22 18:33:00,
2013-02-22 10:38:00,51.6,28.0,30.18,NNE,24,1.1,1.1,40,0.00,OVC,,0.00,WeatherDisplay:10.37,2013-02-22 18:38:00,
2013-02-22 10:43:00,52.3,26.8,30.18,NNW,346,3.5,3.5,37,0.00,OVC,,0.00,WeatherDisplay:10.37,2013-02-22 18:43:00,
2013-02-22 10:48:00,52.0,24.5,30.18,NW,322,4.6,4.6,34,0.00,OVC,,0.00,WeatherDisplay:10.37,2013-02-22 18:48:00,
2013-02-22 10:53:00,51.6,25.5,30.18,NW,322,2.3,2.3,36,0.00,OVC,,0.00,WeatherDisplay:10.37,2013-02-22 18:53:00,
2013-02-22 10:59:00,52.1,24.6,30.18,NW,322,3.5,3.5,34,0.00,OVC,,0.00,WeatherDisplay:10.37,2013-02-22 18:59:00,
2013-02-22 11:04:00,53.0,26.0,30.18,NW,322,2.3,2.3,35,0.00,OVC,,0.00,WeatherDisplay:10.37,2013-02-22 19:04:00,
2013-02-22 11:09:00,53.7,26.0,30.18,East,84,6.0,6.0,34,0.00,OVC,,0.00,WeatherDisplay:10.37,2013-02-22 19:09:00,
2013-02-22 11:14:00,52.6,23.5,30.17,ESE,104,4.6,4.6,32,0.00,OVC,,0.00,WeatherDisplay:10.37,2013-02-22 19:14:00,
2013-02-22 11:19:00,52.7,24.4,30.17,East,92,3.5,3.5,33,0.00,OVC,,0.00,WeatherDisplay:10.37,2013-02-22 19:19:00,
2013-02-22 11:24:00,54.0,24.8,30.17,NNE,14,4.0,4.8,32,0.00,OVC,,0.00,WeatherDisplay:10.37,2013-02-22 19:24:00,
2013-02-22 11:29:00,55.6,24.6,30.17,North,360,6.0,6.0,30,0.00,OVC,,0.00,WeatherDisplay:10.37,2013-02-22 19:29:00,
2013-02-22 11:34:00,55.6,23.0,30.17,NW,311,3.5,3.5,28,0.00,OVC,,0.00,WeatherDisplay:10.37,2013-02-22 19:34:00,
2013-02-22 11:39:00,54.9,23.2,30.17,WSW,246,3.5,3.5,29,0.00,OVC,,0.00,WeatherDisplay:10.37,2013-02-22 19:39:00,
2013-02-22 11:44:00,55.3,23.5,30.17,NNE,31,4.6,4.6,29,0.00,OVC,,0.00,WeatherDisplay:10.37,2013-02-22 19:44:00,
2013-02-22 11:49:00,55.6,22.1,30.17,NW,317,3.5,3.5,27,0.00,OVC,,0.00,WeatherDisplay:10.37,2013-02-22 19:49:00,
2013-02-22 11:54:00,55.6,23.0,30.17,South,169,1.1,1.1,28,0.00,OVC,,0.00,WeatherDisplay:10.37,2013-02-22 19:54:00,
2013-02-22 11:59:00,55.3,21.8,30.17,West,266,5.8,5.8,27,0.00,OVC,,0.00,WeatherDisplay:10.37,2013-02-22 19:59:00,
2013-02-22 12:04:00,54.5,22.0,30.17,NNW,345,3.5,3.5,28,0.00,OVC,,0.00,WeatherDisplay:10.37,2013-02-22 20:04:00,
2013-02-22 12:10:00,55.0,21.6,30.16,West,262,4.0,4.0,27,0.00,OVC,,0.00,WeatherDisplay:10.37,2013-02-22 20:10:00,
2013-02-22 12:15:00,55.2,22.6,30.16,NE,56,3.5,3.5,28,0.00,OVC,,0.00,WeatherDisplay:10.37,2013-02-22 20:15:00,
2013-02-22 12:20:00,56.4,22.8,30.16,NNE,20,5.0,5.0,27,0.00,OVC,,0.00,WeatherDisplay:10.37,2013-02-22 20:20:00,
2013-02-22 12:25:00,58.2,22.5,30.15,NNE,26,5.0,5.0,25,0.00,OVC,,0.00,WeatherDisplay:10.37,2013-02-22 20:25:00,
2013-02-22 12:30:00,57.6,22.0,30.15,NE,45,3.5,3.5,25,0.00,OVC,,0.00,WeatherDisplay:10.37,2013-02-22 20:30:00,
2013-02-22 12:35:00,58.3,21.6,30.15,WNW,290,3.5,3.5,24,0.00,OVC,,0.00,WeatherDisplay:10.37,2013-02-22 20:35:00,
2013-02-22 12:40:00,58.7,22.0,30.14,ENE,66,8.1,8.1,24,0.00,OVC,,0.00,WeatherDisplay:10.37,2013-02-22 20:40:00,
2013-02-22 12:45:00,57.9,22.2,30.14,East,80,4.6,4.6,25,0.00,OVC,,0.00,WeatherDisplay:10.37,2013-02-22 20:45:00,
2013-02-22 12:50:00,58.4,21.7,30.14,ESE,117,4.0,4.0,24,0.00,OVC,,0.00,WeatherDisplay:10.37,2013-02-22 20:50:00,
2013-02-22 12:56:00,57.0,21.5,30.14,ESE,112,3.5,3.5,25,0.00,OVC,,0.00,WeatherDisplay:10.37,2013-02-22 20:56:00,
2013-02-22 13:01:00,57.6,22.0,30.13,WNW,283,3.5,3.5,25,0.00,OVC,,0.00,WeatherDisplay:10.37,2013-02-22 21:01:00,
2013-02-22 13:06:00,58.2,21.5,30.13,NE,49,4.6,4.6,24,0.00,OVC,,0.00,WeatherDisplay:10.37,2013-02-22 21:06:00,
2013-02-22 13:11:00,59.9,22.0,30.13,North,350,4.0,4.0,23,0.00,OVC,,0.00,WeatherDisplay:10.37,2013-02-22 21:11:00,
2013-02-22 13:16:00,59.4,21.5,30.12,SSE,163,3.5,3.5,23,0.00,OVC,,0.00,WeatherDisplay:10.37,2013-02-22 21:16:00,
2013-02-22 13:21:00,58.3,20.6,30.12,SSE,159,6.9,6.9,23,0.00,OVC,,0.00,WeatherDisplay:10.37,2013-02-22 21:21:00,
2013-02-22 13:26:00,57.5,20.9,30.12,SE,146,3.5,3.5,24,0.00,OVC,,0.00,WeatherDisplay:10.37,2013-02-22 21:26:00,
2013-02-22 13:32:00,58.2,21.5,30.11,NNE,24,3.5,3.5,24,0.00,OVC,,0.00,WeatherDisplay:10.37,2013-02-22 21:32:00,
2013-02-22 13:37:00,58.6,21.9,30.11,South,185,6.9,6.9,24,0.00,OVC,,0.00,WeatherDisplay:10.37,2013-02-22 21:37:00,
2013-02-22 13:42:00,57.8,23.1,30.11,WSW,246,5.0,5.0,26,0.00,OVC,,0.00,WeatherDisplay:10.37,2013-02-22 21:42:00,
2013-02-22 13:47:00,58.1,23.3,30.11,South,184,4.0,4.0,26,0.00,OVC,,0.00,WeatherDisplay:10.37,2013-02-22 21:47:00,
2013-02-22 13:52:00,58.3,22.6,30.11,South,189,5.0,10.0,25,0.00,CLR,,0.00,WeatherDisplay:10.37,2013-02-22 21:52:00,
2013-02-22 13:57:00,58.5,22.8,30.11,SE,142,2.0,8.0,25,0.00,CLR,,0.00,WeatherDisplay:10.37,2013-02-22 21:57:00,
2013-02-22 14:02:00,60.4,24.3,30.10,ESE,116,0.0,1.0,25,0.00,CLR,,0.00,WeatherDisplay:10.37,2013-02-22 22:02:00,
2013-02-22 14:07:00,60.3,22.3,30.10,SE,136,2.0,7.0,23,0.00,CLR,,0.00,WeatherDisplay:10.37,2013-02-22 22:07:00,
2013-02-22 14:12:00,59.4,22.5,30.10,SE,126,7.0,12.0,24,0.00,CLR,,0.00,WeatherDisplay:10.37,2013-02-22 22:12:00,
2013-02-22 14:17:00,58.5,21.8,30.10,ESE,110,6.0,12.0,24,0.00,CLR,,0.00,WeatherDisplay:10.37,2013-02-22 22:17:00,
2013-02-22 14:22:00,59.4,22.6,30.10,East,92,2.0,4.0,24,0.00,CLR,,0.00,WeatherDisplay:10.37,2013-02-22 22:22:00,
2013-02-22 14:27:00,60.5,22.5,30.10,South,169,6.9,6.9,23,0.00,OVC,,0.00,WeatherDisplay:10.37,2013-02-22 22:27:00,
2013-02-22 14:32:00,59.3,22.5,30.10,ESE,119,2.3,2.3,24,0.00,OVC,,0.00,WeatherDisplay:10.37,2013-02-22 22:32:00,
2013-02-22 14:37:00,59.6,22.7,30.10,NE,38,4.6,4.6,24,0.00,OVC,,0.00,WeatherDisplay:10.37,2013-02-22 22:37:00,
2013-02-22 14:42:00,60.3,23.3,30.10,SE,137,5.0,5.0,24,0.00,OVC,,0.00,WeatherDisplay:10.37,2013-02-22 22:42:00,
2013-02-22 14:47:00,59.6,22.7,30.09,SE,127,10.4,10.4,24,0.00,OVC,,0.00,WeatherDisplay:10.37,2013-02-22 22:47:00,
2013-02-22 14:53:00,59.6,22.7,30.09,East,84,5.0,5.0,24,0.00,OVC,,0.00,WeatherDisplay:10.37,2013-02-22 22:53:00,
2013-02-22 14:58:00,60.4,23.4,30.09,ENE,78,2.3,2.3,24,0.00,CLR,,0.00,WeatherDisplay:10.37,2013-02-22 22:58:00,
2013-02-22 15:03:00,61.4,24.2,30.09,NNE,14,2.0,2.0,24,0.00,OVC,,0.00,WeatherDisplay:10.37,2013-02-22 23:03:00,
2013-02-22 15:08:00,61.9,23.6,30.09,SE,134,8.1,8.1,23,0.00,OVC,,0.00,WeatherDisplay:10.37,2013-02-22 23:08:00,
2013-02-22 15:13:00,60.8,23.7,30.08,NNW,342,3.0,3.0,24,0.00,OVC,,0.00,WeatherDisplay:10.37,2013-02-22 23:13:00,
2013-02-22 15:19:00,61.5,23.3,30.08,NE,54,7.0,7.0,23,0.00,CLR,,0.00,WeatherDisplay:10.37,2013-02-22 23:19:00,
2013-02-22 15:24:00,61.0,22.9,30.08,SE,143,6.9,6.9,23,0.00,OVC,,0.00,WeatherDisplay:10.37,2013-02-22 23:24:00,
2013-02-22 15:29:00,60.5,22.5,30.08,ESE,105,4.6,4.6,23,0.00,CLR,,0.00,WeatherDisplay:10.37,2013-02-22 23:29:00,
2013-02-22 15:34:00,60.9,22.8,30.09,ENE,78,8.1,8.1,23,0.00,OVC,,0.00,WeatherDisplay:10.37,2013-02-22 23:34:00,
2013-02-22 15:39:00,60.3,22.3,30.08,East,98,13.8,13.8,23,0.00,OVC,,0.00,WeatherDisplay:10.37,2013-02-22 23:39:00,
2013-02-22 15:44:00,60.2,22.2,30.09,East,92,9.2,9.2,23,0.00,OVC,,0.00,WeatherDisplay:10.37,2013-02-22 23:44:00,
2013-02-22 15:49:00,60.1,22.1,30.09,ESE,109,7.0,7.0,23,0.00,OVC,,0.00,WeatherDisplay:10.37,2013-02-22 23:49:00,
2013-02-22 15:54:00,59.9,23.0,30.09,SSE,165,2.3,2.3,24,0.00,OVC,,0.00,WeatherDisplay:10.37,2013-02-22 23:54:00,
2013-02-22 16:00:00,60.3,23.3,30.09,South,172,6.9,6.9,24,0.00,OVC,,0.00,WeatherDisplay:10.37,2013-02-23 00:00:00,
2013-02-22 16:05:00,60.1,23.1,30.09,SSE,151,10.4,10.4,24,0.00,CLR,,0.00,WeatherDisplay:10.37,2013-02-23 00:05:00,
2013-02-22 16:10:00,60.1,23.1,30.09,SSE,167,10.4,10.4,24,0.00,OVC,,0.00,WeatherDisplay:10.37,2013-02-23 00:10:00,
2013-02-22 16:15:00,60.3,23.3,30.09,SSE,159,8.1,8.1,24,0.00,OVC,,0.00,WeatherDisplay:10.37,2013-02-23 00:15:00,
2013-02-22 16:20:00,60.3,24.3,30.09,SE,141,3.5,0.0,25,0.00,OVC,,0.00,WeatherDisplay:10.37,2013-02-23 00:20:00,
2013-02-22 16:25:00,60.4,23.4,30.09,SE,130,6.9,6.9,24,0.00,OVC,,0.00,WeatherDisplay:10.37,2013-02-23 00:25:00,
2013-02-22 16:30:00,60.3,23.3,30.09,South,173,6.0,6.0,24,0.00,OVC,,0.00,WeatherDisplay:10.37,2013-02-23 00:30:00,
2013-02-22 16:35:00,60.5,23.5,30.09,SSE,161,3.5,3.5,24,0.00,OVC,,0.00,WeatherDisplay:10.37,2013-02-23 00:35:00,
2013-02-22 16:40:00,60.8,23.7,30.09,SSW,198,7.0,7.0,24,0.00,OVC,,0.00,WeatherDisplay:10.37,2013-02-23 00:40:00,
2013-02-22 16:46:00,60.5,22.5,30.09,SSE,167,11.5,11.5,23,0.00,OVC,,0.00,WeatherDisplay:10.37,2013-02-23 00:46:00,
2013-02-22 16:51:00,59.6,24.6,30.09,South,180,18.4,18.4,26,0.00,OVC,,0.00,WeatherDisplay:10.37,2013-02-23 00:51:00,
2013-02-22 16:56:00,59.1,25.1,30.09,South,186,15.0,15.0,27,0.00,OVC,,0.00,WeatherDisplay:10.37,2013-02-23 00:56:00,
2013-02-22 17:01:00,59.2,23.4,30.09,South,182,10.0,10.0,25,0.00,CLR,,0.00,WeatherDisplay:10.37,2013-02-23 01:01:00,
2013-02-22 17:06:00,58.7,24.8,30.09,WSW,244,12.7,12.7,27,0.00,OVC,,0.00,WeatherDisplay:10.37,2013-02-23 01:06:00,
2013-02-22 17:11:00,58.7,25.6,30.09,NE,37,3.5,3.5,28,0.00,OVC,,0.00,WeatherDisplay:10.37,2013-02-23 01:11:00,
2013-02-22 17:16:00,58.6,25.6,30.09,WNW,288,6.9,6.9,28,0.00,OVC,,0.00,WeatherDisplay:10.37,2013-02-23 01:16:00,
2013-02-22 17:21:00,58.1,26.0,30.09,WNW,300,8.1,8.1,29,0.00,OVC,,0.00,WeatherDisplay:10.37,2013-02-23 01:21:00,
2013-02-22 17:26:00,56.9,25.7,30.10,WNW,293,6.9,6.9,30,0.00,OVC,,0.00,WeatherDisplay:10.37,2013-02-23 01:26:00,
2013-02-22 17:31:00,56.2,25.9,30.10,NW,310,5.8,5.8,31,0.00,OVC,,0.00,WeatherDisplay:10.37,2013-02-23 01:31:00,
2013-02-22 17:36:00,55.7,25.5,30.10,SSE,157,8.1,8.1,31,0.00,OVC,,0.00,WeatherDisplay:10.37,2013-02-23 01:36:00,
2013-02-22 17:42:00,54.1,26.3,30.10,South,184,12.7,12.7,34,0.00,OVC,,0.00,WeatherDisplay:10.37,2013-02-23 01:42:00,
2013-02-22 17:47:00,53.1,28.1,30.11,South,188,15.0,15.0,38,0.00,OVC,,0.00,WeatherDisplay:10.37,2013-02-23 01:47:00,
2013-02-22 17:52:00,52.1,30.3,30.11,SSW,199,8.1,8.1,43,0.00,OVC,,0.00,WeatherDisplay:10.37,2013-02-23 01:52:00,
2013-02-22 17:57:00,51.0,31.5,30.11,SSW,194,10.0,12.0,47,0.00,CLR,,0.00,WeatherDisplay:10.37,2013-02-23 01:57:00,
2013-02-22 18:02:00,50.3,31.8,30.11,SSW,194,13.0,15.0,49,0.00,CLR,,0.00,WeatherDisplay:10.37,2013-02-23 02:02:00,
2013-02-22 18:07:00,49.8,31.9,30.11,SSW,197,8.0,13.0,50,0.00,CLR,,0.00,WeatherDisplay:10.37,2013-02-23 02:07:00,
2013-02-22 18:12:00,49.2,32.8,30.11,SW,221,16.1,16.1,53,0.00,OVC,,0.00,WeatherDisplay:10.37,2013-02-23 02:12:00,
2013-02-22 18:17:00,48.6,32.2,30.11,SW,221,8.1,8.1,53,0.00,OVC,,0.00,WeatherDisplay:10.37,2013-02-23 02:17:00,
2013-02-22 18:22:00,48.1,32.7,30.11,SSW,193,11.5,11.5,55,0.00,OVC,,0.00,WeatherDisplay:10.37,2013-02-23 02:22:00,
2013-02-22 18:27:00,48.1,32.7,30.11,SSW,194,14.0,14.0,55,0.00,OVC,,0.00,WeatherDisplay:10.37,2013-02-23 02:27:00,
2013-02-22 18:32:00,48.0,33.0,30.11,South,187,16.0,16.0,56,0.00,OVC,,0.00,WeatherDisplay:10.37,2013-02-23 02:32:00,
2013-02-22 18:38:00,47.7,32.8,30.11,South,189,15.0,15.0,56,0.00,OVC,,0.00,WeatherDisplay:10.37,2013-02-23 02:38:00,
2013-02-22 18:43:00,47.6,32.7,30.11,South,185,16.1,16.1,56,0.00,OVC,,0.00,WeatherDisplay:10.37,2013-02-23 02:43:00,
2013-02-22 18:48:00,47.6,32.7,30.12,South,182,17.3,17.3,56,0.00,OVC,,0.00,WeatherDisplay:10.37,2013-02-23 02:48:00,
2013-02-22 18:53:00,47.3,32.4,30.12,South,185,19.6,19.6,56,0.00,OVC,,0.00,WeatherDisplay:10.37,2013-02-23 02:53:00,
2013-02-22 18:58:00,47.0,33.0,30.12,South,184,17.3,17.3,58,0.00,OVC,,0.00,WeatherDisplay:10.37,2013-02-23 02:58:00,
2013-02-22 19:03:00,46.8,33.2,30.12,South,183,17.3,17.3,59,0.00,OVC,,0.00,WeatherDisplay:10.37,2013-02-23 03:03:00,
2013-02-22 19:09:00,46.4,33.3,30.12,South,189,17.3,17.3,60,0.00,OVC,,0.00,WeatherDisplay:10.37,2013-02-23 03:09:00,
2013-02-22 19:14:00,46.3,33.6,30.12,South,188,16.1,16.1,61,0.00,CLR,,0.00,WeatherDisplay:10.37,2013-02-23 03:14:00,
2013-02-22 19:19:00,46.1,33.0,30.12,South,191,15.0,15.0,60,0.00,OVC,,0.00,WeatherDisplay:10.37,2013-02-23 03:19:00,
2013-02-22 19:24:00,46.0,32.9,30.13,SSW,198,12.7,12.7,60,0.00,OVC,,0.00,WeatherDisplay:10.37,2013-02-23 03:24:00,
2013-02-22 19:30:00,45.7,31.8,30.13,SW,232,11.5,11.5,58,0.00,OVC,,0.00,WeatherDisplay:10.37,2013-02-23 03:30:00,
2013-02-22 19:35:00,45.4,31.5,30.13,SW,236,9.2,9.2,58,0.00,OVC,,0.00,WeatherDisplay:10.37,2013-02-23 03:35:00,
2013-02-22 19:40:00,45.2,30.9,30.13,West,262,5.0,5.0,57,0.00,OVC,,0.00,WeatherDisplay:10.37,2013-02-23 03:40:00,
2013-02-22 19:45:00,45.8,31.0,30.13,WSW,254,8.1,8.1,56,0.00,OVC,,0.00,WeatherDisplay:10.37,2013-02-23 03:45:00,
2013-02-22 19:50:00,46.6,29.9,30.13,SW,226,9.2,9.2,52,0.00,OVC,,0.00,WeatherDisplay:10.37,2013-02-23 03:50:00,
2013-02-22 19:55:00,46.4,28.8,30.13,SW,216,6.9,6.9,50,0.00,OVC,,0.00,WeatherDisplay:10.37,2013-02-23 03:55:00,
2013-02-22 20:01:00,46.0,28.4,30.13,SW,222,6.9,6.9,50,0.00,OVC,,0.00,WeatherDisplay:10.37,2013-02-23 04:01:00,
2013-02-22 20:06:00,45.9,28.3,30.14,SW,215,5.0,5.0,50,0.00,CLR,,0.00,WeatherDisplay:10.37,2013-02-23 04:06:00,
2013-02-22 20:11:00,46.0,28.4,30.14,SW,229,7.0,7.0,50,0.00,CLR,,0.00,WeatherDisplay:10.37,2013-02-23 04:11:00,
2013-02-22 20:16:00,45.2,27.2,30.14,WSW,240,4.6,4.6,49,0.00,CLR,,0.00,WeatherDisplay:10.37,2013-02-23 04:16:00,
2013-02-22 20:21:00,43.6,27.1,30.14,WNW,292,4.0,4.0,52,0.00,CLR,,0.00,WeatherDisplay:10.37,2013-02-23 04:21:00,
2013-02-22 20:26:00,43.1,26.7,30.14,WNW,292,1.1,1.1,52,0.00,CLR,,0.00,WeatherDisplay:10.37,2013-02-23 04:26:00,
2013-02-22 20:31:00,42.7,26.7,30.14,WNW,292,1.1,1.1,53,0.00,CLR,,0.00,WeatherDisplay:10.37,2013-02-23 04:31:00,
2013-02-22 20:37:00,42.5,27.1,30.15,SE,132,5.0,5.0,54,0.00,CLR,,0.00,WeatherDisplay:10.37,2013-02-23 04:37:00,
2013-02-22 20:42:00,43.0,26.1,30.15,SSE,149,8.0,9.0,51,0.00,CLR,,0.00,WeatherDisplay:10.37,2013-02-23 04:42:00,
2013-02-22 20:47:00,41.5,25.6,30.15,South,170,7.0,9.0,53,0.00,CLR,,0.00,WeatherDisplay:10.37,2013-02-23 04:47:00,
2013-02-22 20:52:00,42.4,29.5,30.15,SSW,192,11.5,11.5,60,0.00,CLR,,0.00,WeatherDisplay:10.37,2013-02-23 04:52:00,
2013-02-22 20:57:00,43.0,30.1,30.15,SSW,193,8.0,10.0,60,0.00,CLR,,0.00,WeatherDisplay:10.37,2013-02-23 04:57:00,
2013-02-22 21:00:00,43.4,30.0,30.15,SSW,208,10.4,10.4,59,0.00,CLR,,0.00,WeatherDisplay:10.37,2013-02-23 05:00:00,
2013-02-22 21:01:00,43.4,30.0,30.15,SW,232,9.2,9.2,59,0.00,CLR,,0.00,WeatherDisplay:10.37,2013-02-23 05:01:00,
2013-02-22 21:03:00,43.2,29.8,30.15,SSW,201,10.0,10.0,59,0.00,OVC,,0.00,WeatherDisplay:10.37,2013-02-23 05:03:00,
2013-02-22 21:08:00,44.7,31.7,30.15,SSW,203,16.1,16.1,60,0.00,OVC,,0.00,WeatherDisplay:10.37,2013-02-23 05:08:00,
2013-02-22 21:13:00,44.7,32.5,30.15,SSW,205,13.8,13.8,62,0.00,OVC,,0.00,WeatherDisplay:10.37,2013-02-23 05:13:00,
2013-02-22 21:18:00,44.7,32.9,30.15,SSW,192,14.0,14.0,63,0.00,OVC,,0.00,WeatherDisplay:10.37,2013-02-23 05:18:00,
2013-02-22 21:23:00,44.4,32.6,30.15,SSW,197,12.0,12.0,63,0.00,OVC,,0.00,WeatherDisplay:10.37,2013-02-23 05:23:00,
2013-02-22 21:28:00,44.3,32.9,30.15,SSW,197,11.5,11.5,64,0.00,CLR,,0.00,WeatherDisplay:10.37,2013-02-23 05:28:00,
2013-02-22 21:34:00,44.1,32.3,30.15,SSW,196,9.2,9.2,63,0.00,OVC,,0.00,WeatherDisplay:10.37,2013-02-23 05:34:00,
2013-02-22 21:39:00,44.0,31.4,30.15,SW,216,11.5,11.5,61,0.00,OVC,,0.00,WeatherDisplay:10.37,2013-02-23 05:39:00,
2013-02-22 21:44:00,43.8,30.8,30.16,NW,324,5.0,5.0,60,0.00,OVC,,0.00,WeatherDisplay:10.37,2013-02-23 05:44:00,
2013-02-22 21:49:00,41.8,28.9,30.16,NNW,342,3.5,3.5,60,0.00,OVC,,0.00,WeatherDisplay:10.37,2013-02-23 05:49:00,
2013-02-22 21:54:00,40.7,28.3,30.16,NNW,342,3.5,3.5,61,0.00,OVC,,0.00,WeatherDisplay:10.37,2013-02-23 05:54:00,
2013-02-22 21:59:00,40.4,28.0,30.16,NNW,342,1.0,1.0,61,0.00,OVC,,0.00,WeatherDisplay:10.37,2013-02-23 05:59:00,
2013-02-22 22:05:00,39.9,28.7,30.15,East,101,5.0,5.0,64,0.00,OVC,,0.00,WeatherDisplay:10.37,2013-02-23 06:05:00,
2013-02-22 22:10:00,41.9,30.6,30.15,SSE,165,4.0,4.0,64,0.00,OVC,,0.00,WeatherDisplay:10.37,2013-02-23 06:10:00,
2013-02-22 22:15:00,43.2,31.8,30.15,South,188,8.1,8.1,64,0.00,OVC,,0.00,WeatherDisplay:10.37,2013-02-23 06:15:00,
2013-02-22 22:20:00,43.1,31.4,30.15,South,169,6.0,6.0,63,0.00,OVC,,0.00,WeatherDisplay:10.37,2013-02-23 06:20:00,
2013-02-22 22:26:00,43.2,31.8,30.15,SSE,157,4.6,4.6,64,0.00,OVC,,0.00,WeatherDisplay:10.37,2013-02-23 06:26:00,
2013-02-22 22:31:00,42.7,31.4,30.14,SSE,158,5.8,5.8,64,0.00,OVC,,0.00,WeatherDisplay:10.37,2013-02-23 06:31:00,
2013-02-22 22:36:00,41.9,31.0,30.14,SSW,213,4.6,4.6,65,0.00,OVC,,0.00,WeatherDisplay:10.37,2013-02-23 06:36:00,
2013-02-22 22:41:00,41.0,29.7,30.14,SSW,201,5.0,5.0,64,0.00,OVC,,0.00,WeatherDisplay:10.37,2013-02-23 06:41:00,
2013-02-22 22:46:00,41.0,29.4,30.14,SW,228,8.0,8.0,63,0.00,OVC,,0.00,WeatherDisplay:10.37,2013-02-23 06:46:00,
2013-02-22 22:51:00,39.8,28.6,30.14,SW,233,9.2,9.2,64,0.00,OVC,,0.00,WeatherDisplay:10.37,2013-02-23 06:51:00,
2013-02-22 22:56:00,38.1,27.7,30.14,WSW,241,9.2,9.2,66,0.00,OVC,,0.00,WeatherDisplay:10.37,2013-02-23 06:56:00,
2013-02-22 23:01:00,37.8,27.8,30.13,WSW,250,7.0,7.0,67,0.00,OVC,,0.00,WeatherDisplay:10.37,2013-02-23 07:01:00,
2013-02-22 23:07:00,37.5,28.2,30.13,West,263,9.2,9.2,69,0.00,CLR,,0.00,WeatherDisplay:10.37,2013-02-23 07:07:00,
2013-02-22 23:12:00,38.8,28.8,30.13,West,259,6.9,6.9,67,0.00,CLR,,0.00,WeatherDisplay:10.37,2013-02-23 07:12:00,
2013-02-22 23:17:00,38.8,28.4,30.12,West,264,5.8,5.8,66,0.00,CLR,,0.00,WeatherDisplay:10.37,2013-02-23 07:17:00,
2013-02-22 23:22:00,39.3,28.9,30.12,West,261,5.0,5.0,66,0.00,CLR,,0.00,WeatherDisplay:10.37,2013-02-23 07:22:00,
2013-02-22 23:27:00,39.2,28.4,30.12,WSW,252,6.0,6.0,65,0.00,CLR,,0.00,WeatherDisplay:10.37,2013-02-23 07:27:00,
2013-02-22 23:32:00,40.0,28.8,30.12,SW,234,6.9,6.9,64,0.00,CLR,,0.00,WeatherDisplay:10.37,2013-02-23 07:32:00,
2013-02-22 23:37:00,40.8,28.8,30.12,SW,230,6.0,7.0,62,0.00,CLR,,0.00,WeatherDisplay:10.37,2013-02-23 07:37:00,
2013-02-22 23:42:00,41.2,28.4,30.12,SW,224,7.0,8.0,60,0.00,CLR,,0.00,WeatherDisplay:10.37,2013-02-23 07:42:00,
2013-02-22 23:47:00,40.1,26.9,30.12,SW,230,3.0,7.0,59,0.00,CLR,,0.00,WeatherDisplay:10.37,2013-02-23 07:47:00,
2013-02-22 23:52:00,38.4,27.3,30.12,SW,228,2.0,4.0,64,0.00,CLR,,0.00,WeatherDisplay:10.37,2013-02-23 07:52:00,
2013-02-22 23:57:00,37.6,26.1,30.12,NNW,327,0.0,0.0,63,0.00,CLR,,0.00,WeatherDisplay:10.37,2013-02-23 07:57:00,